4XHLP LLHA-LLHA

Flight info

Callsign 4XHLP
Flight time N/A
Altitude 1200
Route SLA CVFR
Aircraft VL3/L-VGD/A

Departure

Time 2026-04-24 19:52
Airport Uri Michaeli Haifa International Airport (LLHA)

Arrival

Time N/A
Airport Uri Michaeli Haifa International Airport (LLHA)
Time Latitude Longitude Altitude Speed Heading
2026-04-24 19:45 32.81104 35.04121 20 ft 0 kts 342°
2026-04-24 19:47 32.81118 35.04058 19 ft 5 kts 121°
2026-04-24 19:47 32.81083 35.04333 28 ft 42 kts 206°
2026-04-24 19:48 32.80846 35.04454 23 ft 38 kts 158°
2026-04-24 19:48 32.80543 35.04596 19 ft 44 kts 185°
2026-04-24 19:48 32.80555 35.04571 19 ft 0 kts 336°
2026-04-24 19:49 32.80865 35.04434 28 ft 79 kts 343°
2026-04-24 19:50 32.80702 35.04566 394 ft 62 kts 155°
2026-04-24 19:50 32.80449 35.05039 405 ft 95 kts 158°
2026-04-24 19:51 32.81122 35.04323 73 ft 98 kts 341°
2026-04-24 19:51 32.81749 35.04064 230 ft 97 kts 343°
2026-04-24 19:52 32.82894 35.04172 636 ft 99 kts 66°
2026-04-24 19:52 32.82967 35.05025 633 ft 119 kts 102°
2026-04-24 19:52 32.82578 35.05837 899 ft 116 kts 117°
2026-04-24 19:52 32.82117 35.06604 945 ft 114 kts 123°
2026-04-24 19:53 32.81618 35.07380 927 ft 119 kts 120°
2026-04-24 19:53 32.81498 35.08211 1129 ft 93 kts 59°
2026-04-24 19:53 32.81684 35.09884 970 ft 119 kts 77°
2026-04-24 19:54 32.81843 35.10788 1045 ft 108 kts 76°
2026-04-24 19:54 32.82014 35.11677 1080 ft 110 kts 52°
2026-04-24 19:54 32.82175 35.12519 1106 ft 109 kts 73°
2026-04-24 19:54 32.82341 35.13371 1175 ft 106 kts 74°
2026-04-24 19:55 32.82399 35.13653 1217 ft 103 kts 70°
2026-04-24 19:55 32.82607 35.15031 1378 ft 103 kts 73°
2026-04-24 19:55 32.82751 35.15867 1420 ft 104 kts 75°
2026-04-24 19:55 32.82751 35.16741 1297 ft 119 kts 93°
2026-04-24 19:56 32.82502 35.17674 604 ft 155 kts 109°
2026-04-24 19:56 32.82220 35.18834 444 ft 132 kts 105°
2026-04-24 19:56 32.81985 35.19805 637 ft 118 kts 103°
2026-04-24 19:56 32.81847 35.20495 1066 ft 90 kts 96°
2026-04-24 19:57 32.81797 35.21322 1214 ft 98 kts 91°
2026-04-24 19:57 32.81648 35.22196 1195 ft 117 kts 97°
2026-04-24 19:57 32.81445 35.23227 672 ft 132 kts 105°
2026-04-24 19:57 32.81460 35.23565 827 ft 77 kts 38°
2026-04-24 19:58 32.81675 35.24138 1090 ft 53 kts 67°
2026-04-24 19:58 32.81842 35.24660 1168 ft 100 kts 70°
2026-04-24 19:58 32.81981 35.25163 1477 ft 83 kts 64°
2026-04-24 19:58 32.82110 35.25897 1441 ft 87 kts 37°
2026-04-24 19:59 32.82539 35.26426 1667 ft 97 kts 43°
2026-04-24 19:59 32.83034 35.27061 1661 ft 94 kts 44°
2026-04-24 19:59 32.83476 35.27523 1640 ft 108 kts 328°
2026-04-24 19:59 32.83540 35.27957 1463 ft 93 kts 114°
2026-04-24 20:00 32.83413 35.28076 1484 ft 70 kts 84°